Wind_Speed
10 10 11 12 14 16 18 18 17 16 13 13 12 11 13 11 9 12 10 11 15 13 12 15 14 14 14 10 10 11 12 13 12 13 13 13 14 14 15 15 15 15 15 17 21 22 23 22 21 21 20 20 20 19 19 20 20 20 19 19 19 19 19 19 18 18 18 17 16 15 15 15 14 14 13 13 13 12 11 9 9 9 8 9 10 10
10 11 13 16 16 16 18 19 18 18 14 13 12 11 11 12 9 10 9 9 14 12 10 13 15 14 14 11 8 10 13 13 14 14 14 15 15 13 15 17 16 14 13 15 18 21 23 22 22 22 21 21 21 21 21 21 21 21 20 20 20 19 20 21 20 19 18 18 17 16 16 16 15 14 14 13 13 13 11 10 10 10 10 10 11 9
10 12 14 17 16 15 16 18 19 18 15 12 11 10 10 10 8 7 8 10 12 9 9 11 13 13 13 12 10 12 13 12 13 15 14 15 15 14 15 16 16 15 13 15 17 20 24 24 24 23 21 22 22 22 21 21 21 21 21 21 20 20 20 21 21 20 19 18 17 16 15 14 14 13 13 13 12 11 11 10 10 11 11 12 11 10
10 12 15 16 15 16 17 18 19 17 14 12 11 10 9 11 9 7 9 12 11 9 9 10 10 10 11 13 13 13 13 12 13 15 15 15 15 16 16 16 16 17 16 16 17 19 22 25 25 24 23 23 22 22 22 22 22 21 21 21 20 20 21 21 21 21 20 18 17 16 15 13 13 12 11 12 12 11 11 11 11 11 12 11 11 10
11 9 13 16 15 16 16 16 18 14 11 14 15 12 11 11 11 10 10 11 11 10 9 9 8 8 11 14 14 12 14 14 14 15 15 15 16 16 16 16 17 17 17 17 18 18 20 23 26 26 25 23 23 23 22 23 22 21 21 21 21 20 20 20 20 21 20 18 18 17 15 14 13 13 13 13 14 13 12 12 12 12 12 11 10 10
12 7 9 15 14 16 17 14 17 14 11 14 16 17 15 12 11 12 11 10 8 8 9 9 8 8 10 14 14 12 13 15 15 16 17 17 16 16 16 16 17 17 17 17 18 18 19 22 26 26 26 24 24 24 23 23 22 21 21 21 22 20 20 21 20 21 20 19 19 18 16 16 15 15 15 14 14 13 12 12 11 10 10 10 10 10
11 9 9 14 15 17 18 14 17 17 12 11 14 18 17 12 10 11 12 11 8 8 9 11 9 8 8 11 13 13 13 15 15 17 19 17 16 17 16 16 16 17 17 17 18 19 19 22 24 25 26 26 25 25 24 23 23 22 21 22 23 21 20 20 20 21 20 19 19 19 18 17 16 15 15 15 14 12 11 10 10 10 10 10 10 10
11 13 11 14 15 16 16 13 16 18 14 11 12 17 18 14 12 12 13 11 10 9 8 10 11 9 8 8 8 11 14 15 16 18 18 17 18 19 18 18 18 18 18 17 17 19 19 21 24 25 27 27 28 27 25 24 23 23 23 22 23 22 21 20 21 21 21 20 19 19 19 18 17 17 15 14 14 13 12 11 10 10 9 10 11 10
13 16 14 15 14 12 14 14 16 17 15 13 10 14 16 15 14 12 11 10 11 11 8 10 12 10 9 7 5 9 13 14 16 18 18 19 20 20 20 20 20 19 18 17 17 18 19 21 25 26 27 28 28 27 25 24 24 23 24 23 23 23 21 21 21 22 23 22 20 19 20 19 18 17 16 14 14 13 13 12 11 10 10 10 10 11
10 15 15 15 14 11 13 15 16 17 16 12 8 10 13 14 13 12 11 9 11 12 10 11 13 8 9 8 7 9 11 12 14 15 17 19 20 20 20 21 20 18 17 18 18 18 19 23 26 26 27 27 27 27 26 25 23 23 23 23 23 23 22 21 22 24 24 23 21 20 21 21 19 18 17 16 15 14 13 13 12 11 11 11 10 10
7 8 11 13 13 12 13 14 15 16 16 11 7 10 11 11 11 10 9 9 11 11 11 14 14 10 10 9 8 9 10 12 11 10 12 16 19 20 19 19 20 18 16 17 18 18 20 24 26 26 26 26 27 27 26 25 24 23 23 23 24 24 23 22 23 25 25 24 23 22 22 22 21 19 18 17 17 15 14 13 13 12 12 12 12 11
11 9 8 10 12 13 13 13 11 13 16 12 8 10 9 7 7 8 7 8 10 9 12 17 17 14 11 10 8 9 11 12 10 10 12 14 18 19 17 17 18 18 17 17 17 17 18 21 23 25 25 26 26 26 26 26 25 24 24 24 24 25 24 23 23 25 25 24 24 24 23 23 22 22 21 19 19 17 16 15 13 13 13 12 13 12
13 12 11 10 12 15 14 12 10 11 14 13 10 11 10 8 7 8 9 9 9 10 12 16 17 14 11 12 12 10 11 12 11 11 12 12 13 14 16 17 16 16 17 17 16 16 16 17 19 22 25 26 26 26 27 27 26 25 24 25 25 25 25 24 24 24 25 25 24 24 24 23 22 23 22 21 19 18 17 16 14 14 14 13 14 13
11 12 15 14 12 15 16 12 10 11 12 13 12 11 11 10 10 11 11 9 9 12 13 13 12 11 10 11 14 15 15 14 13 14 13 10 9 10 14 16 15 17 17 16 16 16 16 16 17 21 25 25 26 27 27 27 27 25 24 25 26 26 26 26 25 25 26 26 26 25 25 23 22 22 22 22 20 18 17 16 15 15 14 13 14 14
11 10 15 17 11 13 18 15 12 11 12 14 14 13 12 11 11 10 9 10 10 11 13 14 10 10 10 7 8 12 14 14 13 13 11 9 9 9 11 14 16 17 17 16 17 18 18 18 20 22 24 25 26 27 28 27 27 25 24 26 27 26 26 26 26 26 26 26 26 26 26 24 23 22 21 21 20 18 17 16 15 15 14 13 13 14
14 10 12 18 15 15 18 16 15 13 11 12 13 13 13 12 11 9 10 12 12 10 12 12 8 9 9 5 5 7 9 11 13 12 11 10 10 10 10 13 15 15 16 17 17 18 19 19 22 23 24 25 25 27 28 27 27 27 26 26 27 27 27 27 27 28 27 26 26 26 26 25 23 21 20 20 20 18 18 17 15 14 14 14 13 13
11 9 10 16 18 19 18 16 17 14 9 9 12 14 13 13 13 12 11 11 11 12 11 9 8 9 9 8 11 13 13 14 14 13 13 12 11 12 11 12 14 15 16 17 16 17 19 19 21 24 25 25 26 27 28 28 29 29 27 26 27 27 27 27 29 29 27 26 25 26 27 25 23 22 21 20 20 19 18 17 16 15 15 15 15 14
8 8 9 15 17 19 18 17 19 18 13 9 10 14 12 11 12 12 11 9 11 12 10 11 13 12 10 9 11 15 17 17 16 16 15 11 11 13 13 13 14 15 16 17 17 17 18 18 20 24 26 26 27 28 29 29 29 29 28 27 27 28 28 28 29 29 27 26 26 25 25 25 24 23 22 21 20 19 18 18 18 17 16 16 16 15
8 8 9 16 17 16 17 16 16 18 20 15 9 10 11 10 10 10 10 10 13 12 10 14 17 13 11 9 8 11 14 14 15 15 13 10 11 13 12 13 15 15 15 16 16 15 16 17 20 24 26 27 28 28 29 30 28 27 27 28 28 30 31 30 28 27 27 26 26 24 24 25 24 23 22 21 20 20 20 20 19 18 17 16 16 15
8 7 7 13 16 15 14 14 13 14 19 19 13 10 11 11 10 10 10 9 11 12 11 14 15 11 10 11 12 12 10 10 10 11 10 10 10 12 11 11 13 14 15 15 16 16 17 18 21 25 27 27 28 28 28 28 28 28 28 28 28 29 30 30 28 27 27 27 26 23 22 24 24 24 23 22 22 22 23 21 20 19 18 17 18 17
8 7 7 9 14 14 11 12 15 15 15 15 13 12 11 10 9 10 11 10 11 11 11 12 13 10 8 10 14 15 12 11 12 12 11 12 12 12 11 11 12 14 14 15 15 16 17 17 20 25 27 27 27 27 27 27 28 28 28 27 29 29 29 30 30 29 27 27 26 24 23 24 25 25 24 23 24 24 23 22 23 24 21 20 21 20
8 7 8 7 10 11 12 14 18 19 16 14 13 13 13 11 10 11 12 12 12 12 11 12 12 10 7 8 11 14 15 14 14 14 13 14 15 11 9 10 11 12 14 14 15 15 16 16 17 21 24 25 25 26 26 26 26 27 27 27 28 29 29 30 30 28 27 25 25 24 25 25 25 25 24 24 24 24 24 25 27 27 23 21 21 20
9 6 8 9 8 11 14 15 18 20 21 18 14 15 15 13 12 12 11 11 12 13 14 14 13 10 8 8 10 12 14 15 15 14 13 14 14 10 7 8 10 11 12 13 14 14 14 14 15 19 22 24 24 24 25 25 25 26 27 27 27 28 30 30 29 27 26 24 24 25 25 24 24 25 25 25 25 26 26 24 25 27 26 22 21 22
9 6 8 9 9 9 13 15 15 17 19 17 15 15 16 16 16 14 12 11 12 13 13 13 13 10 8 6 7 9 14 16 15 14 13 13 12 8 7 7 8 10 11 12 13 12 12 13 15 16 18 20 22 22 24 24 24 24 25 26 26 28 30 29 27 26 25 24 25 25 25 24 25 25 26 26 26 28 28 24 23 27 28 23 22 26
8 8 8 9 8 8 11 12 12 14 14 12 13 16 18 20 22 18 14 12 13 15 17 15 12 10 8 7 6 9 14 15 14 14 13 11 10 7 5 6 7 8 9 11 12 12 13 14 14 14 15 18 21 22 22 23 24 24 24 26 26 27 28 27 26 25 24 24 25 25 25 26 26 26 28 28 26 27 29 26 24 27 28 26 25 28
9 9 9 10 11 10 11 11 10 11 12 11 14 19 21 23 25 19 13 13 13 14 16 15 11 10 12 11 11 12 14 13 12 13 12 10 9 8 5 5 7 8 9 11 12 13 13 13 14 14 14 17 21 21 22 23 23 24 24 25 26 25 25 25 25 25 24 23 24 25 26 27 27 27 29 28 26 26 28 27 26 27 29 28 28 29
7 8 11 13 14 12 11 11 11 12 13 14 18 21 21 22 24 20 13 13 13 11 13 14 13 14 15 15 15 16 15 14 13 13 13 11 10 9 6 6 7 7 9 11 12 12 13 13 15 15 16 18 21 21 22 23 23 23 23 25 26 24 22 22 23 24 23 22 23 24 26 27 27 27 27 26 26 26 28 28 27 27 28 28 29 31
7 9 13 17 18 17 16 15 15 15 15 17 20 22 21 20 22 21 17 16 15 12 12 14 14 17 18 17 16 16 15 15 13 13 14 13 12 10 7 7 8 9 10 11 12 14 15 15 15 16 16 18 21 22 21 22 23 23 23 23 24 23 21 20 21 22 22 21 21 22 23 25 25 24 23 22 23 24 27 27 25 24 26 29 32 33
7 9 13 17 19 21 22 20 19 18 17 18 19 21 22 22 22 21 20 21 19 14 13 13 15 18 19 19 19 17 14 14 13 14 16 15 13 10 7 8 9 10 12 14 15 15 15 15 15 16 16 18 20 22 22 22 22 22 22 21 21 21 20 19 19 20 21 20 20 20 20 21 21 20 20 21 21 24 25 24 25 25 29 34 36 35
7 9 13 16 19 21 23 24 24 22 20 20 22 22 23 24 25 24 23 23 23 21 19 17 18 19 17 19 22 20 17 15 14 15 16 16 15 11 8 9 10 11 13 15 15 15 16 15 15 16 16 17 20 22 22 22 22 23 22 21 20 20 20 19 19 19 20 20 20 19 18 19 20 20 22 22 23 24 24 25 29 31 35 39 40 40
8 9 11 12 14 17 21 23 24 24 23 23 23 24 24 24 25 25 24 23 22 22 22 23 22 18 15 16 19 19 18 18 17 16 16 16 16 14 11 10 11 12 13 14 15 15 15 15 15 16 17 18 20 23 23 22 22 22 21 20 20 20 20 19 18 18 19 19 18 18 18 19 19 20 22 23 24 24 24 27 33 36 37 40 43 43
8 8 7 8 9 12 16 20 23 23 23 23 22 23 24 23 21 21 20 21 21 20 22 23 20 15 13 16 18 18 19 19 17 17 17 17 17 15 12 12 12 13 14 14 14 15 16 17 18 18 19 19 22 23 23 21 21 20 20 20 20 19 19 19 18 17 18 17 17 17 18 19 18 18 21 23 24 24 24 28 36 39 39 40 43 44
6 6 6 7 8 9 13 17 19 19 18 17 17 19 22 22 21 21 20 22 23 21 18 17 15 13 14 15 17 19 22 21 17 16 16 15 14 13 12 12 12 12 13 14 14 15 17 17 17 18 18 20 22 24 23 22 21 20 21 20 19 19 18 19 18 17 17 17 16 16 18 19 18 18 20 22 22 22 23 27 35 41 37 30 33 41
6 5 4 4 5 8 12 12 12 14 15 12 12 18 23 23 23 23 22 22 22 20 17 15 14 14 15 16 18 19 20 19 16 15 15 13 10 10 11 11 10 10 11 12 13 14 15 14 14 16 19 20 22 22 21 21 19 18 18 18 18 18 18 18 17 17 16 15 15 16 17 18 17 18 19 20 20 21 22 25 32 40 37 26 25 33
9 7 4 3 4 6 7 8 10 12 12 9 7 11 16 19 22 23 22 22 22 21 20 20 18 16 15 16 18 17 16 16 15 14 14 11 9 8 9 9 9 10 10 11 12 13 14 14 14 15 18 19 20 20 20 19 18 17 17 17 17 18 18 17 16 15 14 15 15 15 16 16 16 16 16 19 22 22 22 24 28 33 33 27 24 24
10 9 6 4 4 6 6 8 11 9 8 8 7 5 7 12 17 20 20 22 23 22 21 20 20 20 18 17 17 15 13 12 10 9 10 10 9 9 10 9 10 11 11 11 12 12 13 14 15 16 18 19 19 19 18 18 18 17 17 17 17 16 16 15 15 14 14 14 14 14 14 14 15 15 16 20 23 22 21 23 24 26 25 24 24 22
10 9 8 6 4 4 5 7 9 9 9 8 5 2 3 5 8 9 11 15 19 21 20 19 20 21 20 20 19 13 8 7 7 8 11 12 11 10 10 9 10 11 12 12 13 14 15 16 16 16 17 19 20 19 18 18 18 17 16 16 15 14 14 14 13 13 13 13 13 13 13 13 14 14 16 19 23 23 20 21 23 24 23 24 26 23
12 9 8 8 6 4 5 7 9 10 9 3 2 5 7 8 7 6 6 9 14 18 20 19 19 19 20 20 17 9 7 7 9 10 12 13 12 10 9 8 8 10 12 12 13 15 18 19 19 18 18 18 19 18 18 18 18 16 15 14 14 13 14 13 12 12 12 12 12 12 12 12 13 14 15 18 22 23 20 21 23 23 22 24 25 22
15 11 8 9 9 8 7 7 7 9 5 4 5 7 8 8 7 4 6 9 11 15 19 21 21 19 20 19 13 9 8 10 11 10 9 11 12 11 10 9 9 10 12 13 15 15 17 20 20 20 19 18 18 18 19 19 18 16 14 14 14 14 13 12 12 12 11 11 12 12 11 11 12 14 15 17 21 23 21 21 24 22 20 22 22 19
15 11 9 10 11 11 10 8 7 7 2 5 8 9 9 6 3 5 9 7 5 9 12 16 20 20 19 17 12 11 11 10 7 4 7 10 9 9 10 9 10 11 12 14 16 17 18 20 21 21 20 18 18 19 20 19 17 15 14 14 14 13 13 12 12 11 11 11 12 12 11 10 11 13 14 14 18 21 20 19 21 20 20 21 20 18
13 11 10 11 11 11 13 10 8 6 0 6 9 11 8 5 5 7 7 3 8 12 12 10 14 16 15 14 12 10 9 4 2 5 9 11 10 10 9 9 10 11 12 14 16 17 18 19 19 19 18 18 18 19 19 18 17 15 15 15 14 14 14 14 13 13 12 12 12 11 11 11 11 12 13 13 15 18 18 17 18 19 19 19 20 19
12 11 10 11 11 11 11 10 9 7 1 6 10 8 3 5 6 4 5 8 9 11 9 8 9 10 9 11 10 7 6 7 8 9 9 10 11 12 11 11 12 12 14 16 15 15 16 16 17 18 17 17 18 17 17 18 17 16 15 15 14 14 15 15 15 14 14 13 12 11 11 11 11 12 13 12 13 16 16 16 18 19 18 18 18 18
10 11 11 11 10 8 9 10 10 8 2 7 8 4 1 3 5 7 9 9 8 8 7 5 5 5 6 8 8 9 11 11 11 12 12 12 12 13 12 13 13 14 15 16 15 15 16 16 16 17 17 16 16 15 16 17 16 15 14 15 15 14 15 15 15 15 14 13 12 11 11 11 11 12 12 12 14 17 17 15 17 18 17 16 15 16
7 8 9 9 9 9 11 10 5 2 5 7 6 2 2 7 9 9 9 7 5 5 4 2 1 2 5 8 10 12 14 14 14 15 15 15 15 15 14 14 14 14 15 16 17 18 18 16 16 16 15 14 14 13 13 14 15 15 15 15 14 14 15 15 14 15 14 12 12 11 11 11 11 12 12 12 14 17 18 16 16 16 15 15 14 15
1 2 3 5 6 5 4 1 3 5 6 7 6 4 5 8 9 9 7 5 3 3 3 3 4 4 7 11 13 14 15 16 16 16 16 16 16 16 15 15 15 15 16 16 17 18 18 17 17 16 14 13 12 12 12 12 14 16 16 14 14 14 14 14 14 14 13 11 11 10 10 10 11 12 12 12 14 17 17 17 16 15 14 14 14 15
4 3 3 3 3 3 2 5 5 5 6 8 10 8 7 8 8 7 6 4 4 6 7 7 8 9 9 11 13 15 16 17 18 18 17 17 17 16 15 15 14 14 15 15 15 15 17 18 18 17 16 13 11 11 12 12 13 15 15 14 14 13 13 14 13 12 11 10 10 10 10 10 11 12 13 12 13 15 15 16 16 15 14 14 14 15
6 4 3 1 4 4 2 5 6 5 7 10 12 11 10 9 9 7 6 5 6 9 11 13 13 12 11 10 12 15 17 18 18 17 16 16 16 16 15 15 14 14 14 13 12 13 14 14 14 15 16 14 12 11 12 12 13 14 15 14 14 13 14 13 13 11 10 9 9 10 10 10 10 11 12 12 12 13 14 15 15 14 13 13 15 15
4 6 4 1 3 3 3 6 6 6 9 12 13 11 9 9 9 8 7 8 9 12 15 17 16 14 13 12 13 15 18 18 17 15 14 13 13 14 14 14 14 13 14 14 13 13 13 12 12 13 13 13 12 11 11 12 12 13 13 13 13 14 14 13 12 11 10 9 9 10 10 10 10 10 10 11 10 10 11 12 13 12 11 12 13 12
5 4 3 2 1 3 4 4 4 5 8 12 13 11 10 10 9 10 11 12 13 15 18 19 18 16 15 15 15 16 18 17 16 16 15 13 12 12 13 13 13 13 14 14 14 14 14 13 12 12 12 12 11 11 11 11 11 12 12 12 12 13 13 13 12 11 10 9 9 10 10 10 10 10 10 10 8 8 9 10 11 11 10 9 9 10
4 1 3 2 4 3 3 3 4 4 4 6 9 8 10 12 10 12 14 15 16 15 16 18 18 16 16 15 15 15 16 16 15 16 15 13 12 12 13 13 13 13 14 14 14 14 14 13 12 12 12 10 9 9 10 10 10 10 10 11 11 11 12 13 11 10 10 10 9 10 10 10 10 11 10 10 10 9 9 9 10 11 10 9 10 12
4 3 4 3 1 3 3 2 3 3 3 5 7 4 5 9 11 12 14 16 16 15 15 16 16 15 14 15 15 15 15 15 15 15 15 13 12 12 13 13 12 12 13 13 13 13 13 12 11 11 10 9 8 8 9 9 9 9 9 9 9 9 11 11 10 9 10 9 9 11 11 10 11 11 10 9 9 10 9 8 9 11 11 12 14 14
Wind_Direction
192 199 201 208 206 200 204 207 216 224 223 225 222 224 234 235 222 208 197 187 191 203 213 215 224 229 227 213 190 185 185 193 203 203 204 201 199 199 199 201 200 201 201 193 192 195 196 198 199 199 200 200 202 202 203 204 206 205 204 205 207 207 206 207 208 208 210 212 215 218 220 222 220 220 222 226 229 229 231 222 215 231 243 247 256 261
197 212 208 206 209 206 204 206 214 221 223 225 229 228 231 240 227 191 183 191 196 211 220 216 228 234 233 229 199 191 196 195 200 205 208 207 205 204 204 204 203 202 200 191 189 192 195 198 199 199 200 200 200 201 203 205 206 206 206 207 208 208 207 209 210 210 211 213 214 216 218 222 223 222 225 229 231 231 233 223 220 232 240 249 257 255
205 220 213 204 211 213 205 206 210 217 222 223 231 236 230 233 223 177 180 197 198 215 229 217 230 239 234 234 220 206 209 204 202 208 210 209 208 208 207 206 204 201 197 192 190 190 194 197 198 198 200 201 201 202 203 205 206 206 207 208 209 210 210 211 211 211 212 213 214 217 220 225 229 229 229 232 233 232 231 224 220 228 238 246 245 234
205 215 214 207 209 212 205 205 208 214 221 224 228 231 233 227 214 192 193 201 202 215 240 235 235 246 242 240 233 220 217 213 208 211 214 213 212 212 210 208 205 202 197 194 193 193 194 195 197 198 199 200 201 202 202 203 203 204 205 206 207 209 211 212 211 211 213 213 214 218 223 228 233 236 233 234 236 234 231 227 225 231 236 237 232 223
217 210 212 207 203 208 207 203 208 214 216 221 225 226 236 228 215 213 198 195 208 215 233 245 244 249 242 238 235 224 220 219 212 212 215 214 213 215 214 211 209 205 199 196 197 197 195 196 197 199 200 200 201 202 203 202 202 202 203 202 204 206 209 212 211 211 211 211 214 218 222 227 231 235 233 232 234 233 232 234 233 233 232 229 225 220
222 196 195 205 200 208 215 209 208 214 216 219 221 224 237 235 222 221 200 189 213 219 213 223 244 254 239 235 236 227 219 218 212 210 212 211 210 212 215 213 210 208 203 199 199 199 198 199 199 200 200 201 203 204 204 204 203 202 201 201 202 204 208 210 210 209 208 209 214 215 216 220 222 225 226 227 232 231 232 236 232 228 226 224 221 220
217 184 180 207 207 208 217 217 210 211 220 222 213 216 229 236 228 220 202 195 219 231 208 206 232 258 242 231 229 225 223 218 212 212 212 208 205 208 211 211 210 208 205 202 201 200 200 200 200 200 200 201 204 205 205 205 204 202 200 200 201 204 206 208 208 207 206 209 213 215 216 219 220 222 225 226 231 233 232 232 229 226 224 221 219 219
205 195 189 207 213 209 214 218 209 207 220 227 210 206 214 222 224 218 210 213 227 231 208 200 224 253 252 236 223 221 223 218 213 216 215 211 208 207 208 208 208 208 205 203 201 201 201 199 199 200 199 201 205 205 203 204 204 202 201 200 201 203 205 206 205 204 205 209 212 214 218 221 223 225 227 226 228 231 229 228 229 229 227 222 219 220
190 206 198 199 212 214 214 217 209 206 219 232 218 201 204 214 222 222 220 226 232 231 220 208 220 247 254 236 214 216 220 220 220 220 217 214 212 209 208 208 206 207 206 204 202 201 200 199 199 199 199 201 204 204 203 203 203 202 201 201 201 203 204 205 205 205 208 211 211 214 218 221 223 226 229 228 227 227 226 227 230 228 226 222 220 222
180 211 205 198 212 217 216 219 214 210 218 229 218 198 203 213 220 225 227 233 234 231 232 218 209 230 257 238 211 211 219 226 228 225 219 216 214 211 209 208 205 203 203 205 206 202 199 198 198 198 199 200 202 203 203 202 202 201 200 201 201 204 205 205 206 209 211 211 211 214 218 220 221 223 226 228 227 225 224 227 229 227 225 219 220 225
173 193 205 205 212 216 219 222 218 214 216 219 206 202 207 210 218 227 229 239 240 228 235 236 214 214 251 249 219 208 219 234 238 233 227 219 215 213 210 207 204 200 199 201 204 203 200 198 196 197 198 199 199 200 200 199 200 200 199 200 202 205 205 204 206 210 211 210 211 214 216 219 220 220 222 225 224 221 220 224 227 227 224 219 221 224
191 178 196 205 209 213 219 221 216 215 218 217 210 209 206 197 207 222 219 230 242 229 229 238 224 213 237 251 235 216 220 236 245 245 243 227 216 211 207 205 203 200 197 196 199 201 199 198 196 196 196 197 196 195 196 198 199 199 199 199 201 203 204 204 205 209 210 208 210 214 215 217 219 220 221 223 223 220 220 224 225 224 222 220 220 219
208 202 198 192 197 207 212 211 205 210 215 216 215 211 205 197 199 212 213 214 230 233 232 236 227 218 233 247 248 242 231 236 245 253 258 247 226 211 202 202 201 199 198 193 194 196 196 196 196 195 194 194 193 193 194 196 198 199 198 198 200 202 203 204 205 207 209 209 210 213 214 215 217 219 221 223 224 224 224 226 223 221 220 219 218 215
209 210 207 200 192 198 206 207 201 200 203 208 210 207 206 207 207 211 216 216 224 231 230 229 227 228 236 242 243 247 246 248 255 259 260 257 244 221 202 199 198 198 198 194 192 192 194 196 194 193 193 192 192 192 192 194 197 197 196 197 199 202 203 204 205 207 209 210 211 213 214 214 214 216 219 223 226 226 226 225 221 218 218 219 219 213
207 208 206 205 193 186 201 213 213 200 197 207 212 214 215 215 217 215 213 219 224 227 221 213 214 231 238 239 235 239 245 252 262 265 259 249 235 220 205 201 199 197 196 195 193 192 192 192 191 192 193 192 191 191 192 194 194 195 196 197 198 201 202 203 204 206 209 210 211 212 214 214 214 215 217 221 226 224 221 220 215 214 216 219 219 211
218 221 200 199 198 190 196 210 216 210 203 205 211 219 221 218 224 231 229 232 231 231 224 209 207 234 242 241 226 233 248 253 259 260 252 241 223 207 203 203 202 199 196 195 196 195 192 188 189 192 192 192 191 191 192 192 192 195 196 196 197 200 201 202 204 207 209 209 209 211 213 213 212 212 214 218 221 218 214 215 212 210 213 215 213 205
220 229 191 191 201 200 196 199 206 218 215 195 206 219 222 222 229 234 234 238 236 233 230 212 211 230 238 240 234 239 250 251 252 253 246 239 217 203 205 204 203 201 197 196 197 196 193 188 188 191 191 191 191 192 193 192 192 195 195 195 196 199 200 202 205 208 208 207 209 211 212 211 209 208 210 213 212 209 209 212 212 211 212 211 207 201
221 235 188 186 202 200 197 201 204 216 223 207 207 212 213 226 239 239 230 222 223 231 234 226 225 226 227 234 233 235 241 240 242 248 249 239 211 206 211 205 201 200 198 198 198 197 194 190 189 190 191 191 191 192 192 192 193 194 194 195 195 196 200 203 205 207 207 205 207 209 209 208 207 207 208 208 206 205 205 208 210 211 210 207 204 200
209 241 197 186 203 196 192 207 208 210 218 226 227 208 206 218 224 226 228 225 225 230 236 235 235 231 227 229 215 214 224 226 230 239 245 237 213 210 214 206 199 198 197 199 198 196 195 194 192 190 191 192 192 191 191 192 193 193 195 196 196 198 202 203 204 206 206 205 207 208 206 205 206 206 205 205 202 202 207 210 208 206 205 203 200 197
195 238 216 183 198 197 188 206 212 200 207 222 233 223 217 222 218 216 222 229 233 234 236 238 237 228 223 230 223 213 215 226 239 247 254 255 236 220 212 204 198 195 197 199 197 196 195 196 195 192 191 191 191 191 192 192 193 195 196 196 198 200 202 203 204 205 205 206 206 205 202 202 203 203 203 201 200 204 210 209 203 201 200 196 195 195
199 220 231 186 189 199 195 201 211 206 198 205 217 220 216 215 222 226 224 223 231 238 237 238 241 231 213 221 226 225 225 235 252 259 258 261 255 237 218 206 197 194 197 197 197 198 196 195 195 194 192 191 190 190 192 193 194 197 197 197 198 200 201 204 205 205 205 205 204 201 199 200 200 202 201 200 203 208 208 205 206 206 200 194 197 196
207 208 223 203 186 204 210 203 210 217 211 200 202 213 216 212 214 224 225 219 223 235 237 239 245 239 217 205 213 224 232 234 240 250 254 258 259 252 228 209 199 194 196 196 197 198 195 194 194 192 191 191 190 190 192 193 195 196 197 198 200 201 204 207 207 205 205 203 201 200 200 199 199 200 200 200 202 204 205 210 213 208 199 195 197 194
212 213 221 222 209 212 217 209 209 218 222 219 212 212 216 216 217 222 223 217 221 231 236 241 246 241 230 209 192 209 229 233 236 249 259 259 257 252 226 209 200 195 197 197 198 199 195 193 190 187 188 190 191 191 190 192 194 196 197 198 200 203 206 208 207 205 203 201 199 199 199 198 197 199 199 200 200 201 206 210 207 205 203 196 193 195
207 215 216 229 230 220 222 218 209 213 222 227 222 215 215 218 220 226 229 225 228 228 227 237 241 234 229 213 192 212 228 226 230 245 254 257 259 248 216 200 193 192 196 198 198 197 192 188 184 184 185 188 190 189 189 191 193 194 196 199 201 205 207 208 207 205 202 200 200 198 197 196 197 199 200 201 201 202 205 203 198 204 205 195 192 201
191 208 207 220 225 216 220 216 203 206 217 226 226 220 219 221 222 226 230 231 233 230 228 233 236 228 220 204 206 231 227 217 220 233 239 246 258 252 214 184 182 184 190 196 197 193 189 184 180 180 181 183 185 187 188 189 191 193 196 200 203 206 207 206 205 204 201 201 201 197 195 197 198 199 201 203 202 200 201 200 196 199 199 192 192 199
194 206 202 212 217 209 212 211 202 205 211 219 228 225 221 222 223 224 227 229 232 232 231 235 238 232 220 200 196 214 217 213 222 234 239 243 253 252 218 173 173 176 183 191 192 191 189 183 179 178 178 179 182 184 185 186 190 193 196 201 205 207 206 204 204 203 202 201 201 197 196 197 199 202 204 204 201 197 196 198 195 192 193 192 192 197
219 217 207 217 229 225 220 216 212 212 213 215 222 225 225 223 225 227 228 229 230 229 232 238 243 240 226 206 198 208 219 226 228 231 237 241 245 246 222 183 174 175 180 185 187 188 186 183 181 179 176 177 180 182 183 186 189 192 196 201 205 206 205 203 202 202 202 203 202 198 197 199 201 204 205 202 200 195 195 199 195 189 189 191 193 197
235 230 214 221 233 238 239 233 221 217 221 221 220 221 224 224 225 228 230 233 234 233 232 231 231 235 234 223 214 213 222 230 230 231 240 246 249 244 215 183 180 180 178 181 186 189 188 186 182 180 178 177 180 181 182 186 190 192 196 200 202 204 203 200 199 200 202 204 204 200 199 201 203 204 204 201 198 197 198 197 188 181 188 195 198 198
231 233 223 226 231 234 237 239 235 228 225 227 226 222 222 223 224 226 232 235 236 238 240 231 224 227 230 231 230 227 224 228 231 236 243 251 257 249 210 189 195 191 183 183 187 191 194 192 184 180 180 178 179 181 182 187 190 192 196 198 199 201 200 198 197 200 202 203 205 204 201 202 203 205 208 205 198 196 196 185 174 182 203 209 205 201
225 234 232 234 235 233 233 234 236 236 230 228 229 229 227 226 225 226 231 233 234 239 244 242 237 232 226 227 235 239 238 240 243 243 243 249 254 249 224 211 212 204 195 190 188 189 196 196 187 180 178 178 180 182 184 187 190 192 194 195 196 197 197 197 197 199 202 204 206 205 204 205 205 207 210 208 201 197 191 180 181 198 216 216 208 204
212 230 233 239 242 236 232 232 235 239 238 233 230 230 232 231 229 227 227 229 232 236 238 240 242 240 230 228 235 239 241 244 244 240 239 243 247 245 232 223 221 216 207 199 191 187 191 194 187 180 179 180 181 182 184 186 187 189 191 192 193 194 194 195 196 199 203 206 206 205 208 210 208 206 207 205 203 199 191 187 193 205 217 217 209 207
208 225 226 241 247 235 228 228 230 235 240 239 234 230 231 232 232 232 229 227 229 232 233 235 238 238 232 231 233 232 234 238 237 233 234 236 241 242 234 227 226 219 210 202 191 185 187 190 186 181 180 181 181 182 183 182 181 184 187 188 189 190 191 194 197 200 204 207 206 203 209 213 208 205 205 204 205 203 195 193 199 206 214 215 210 208
205 218 216 232 247 241 231 229 229 230 233 235 232 229 230 232 233 235 235 230 229 230 233 234 235 237 234 230 228 229 230 232 229 228 232 233 235 236 233 233 234 225 214 203 192 186 188 189 186 182 180 180 181 183 181 179 179 182 184 184 183 185 188 192 197 201 203 206 204 200 206 211 208 206 207 207 207 204 195 192 199 206 210 210 208 208
191 200 216 233 251 248 236 229 233 234 230 229 226 224 227 229 231 234 237 235 232 230 234 239 241 238 231 224 225 228 229 228 222 218 223 227 227 228 230 235 238 231 219 206 195 189 187 187 184 180 178 180 181 180 178 178 178 177 177 178 178 181 186 189 194 199 202 203 202 199 200 203 204 207 207 204 204 201 195 194 199 205 207 205 206 206
201 202 212 228 250 250 233 219 226 230 228 233 240 235 233 234 234 236 239 240 239 235 235 238 240 241 236 229 228 229 228 226 223 220 222 222 219 222 227 226 223 220 215 204 195 187 181 181 181 175 175 178 177 173 171 173 173 172 173 175 177 180 184 187 190 195 199 200 198 199 196 194 201 207 200 196 200 201 201 201 199 201 205 206 205 200
217 218 221 224 240 246 234 223 229 237 243 245 249 265 263 245 237 237 238 237 237 238 237 235 236 238 236 231 232 234 230 225 226 226 225 221 217 220 224 221 212 207 202 195 190 184 178 178 176 170 167 167 166 166 168 171 173 172 172 174 177 178 180 184 188 191 196 197 193 194 192 190 199 203 194 196 201 202 204 206 200 197 201 203 199 193
215 217 224 225 225 237 246 241 239 246 252 250 250 349 345 289 260 255 251 239 232 235 237 235 234 233 231 234 237 231 213 213 229 233 225 218 213 213 221 224 213 201 192 187 183 177 170 166 165 164 162 161 163 166 168 170 170 167 166 169 173 175 176 180 186 188 191 191 187 187 187 190 200 198 190 196 202 201 204 206 200 197 200 200 196 192
210 207 212 217 208 206 240 248 241 237 234 225 41 29 11 342 326 317 286 250 234 233 233 232 232 228 228 236 234 203 175 211 238 241 225 208 198 195 202 213 207 193 184 178 174 168 164 162 160 160 161 161 160 159 158 160 159 155 156 162 166 169 171 175 181 183 184 183 180 179 181 191 204 200 190 195 202 203 206 205 199 196 198 196 192 191
207 201 200 219 219 212 224 239 243 240 220 109 53 8 353 338 335 323 265 242 235 236 232 228 226 222 226 231 216 176 185 221 235 236 211 189 184 181 179 183 182 173 167 164 163 163 159 154 149 149 153 151 146 144 145 147 149 148 149 155 161 164 164 167 172 175 175 174 171 172 177 189 202 202 196 198 202 205 207 205 201 197 194 190 186 186
203 197 196 216 220 212 215 228 243 246 229 60 25 354 340 327 309 246 235 237 284 291 266 241 229 223 223 221 199 183 207 225 234 218 158 150 159 161 160 165 163 158 158 156 154 151 144 139 139 143 146 142 137 137 139 141 143 145 146 151 157 156 154 157 162 163 162 161 163 167 172 183 196 202 200 198 199 204 207 204 199 195 190 188 189 194
200 200 202 213 216 211 213 224 238 239 219 28 1 346 332 285 235 226 235 289 335 325 318 291 255 237 221 208 196 196 207 198 112 107 122 130 135 134 138 148 146 144 142 137 136 138 136 134 136 137 136 135 134 134 136 138 140 140 143 148 149 145 145 149 151 150 149 150 157 165 170 179 190 196 199 197 193 196 202 203 197 190 186 188 194 199
201 200 205 213 216 217 219 227 235 225 147 15 348 347 338 248 237 260 313 321 314 310 319 311 281 262 229 205 197 188 162 128 114 116 119 121 123 125 131 136 132 126 121 117 122 131 132 127 123 119 119 123 127 130 134 136 134 137 142 144 139 137 140 143 142 141 142 146 154 164 172 179 183 187 193 194 186 186 193 199 197 193 192 194 195 196
201 202 207 208 207 214 217 223 233 223 131 29 357 353 12 281 302 330 325 311 313 320 320 308 288 269 230 195 170 145 130 124 121 117 114 113 115 116 119 121 119 116 115 114 115 116 112 107 105 106 110 116 119 125 132 133 132 135 137 132 129 133 135 136 137 138 140 144 152 161 170 174 177 181 186 190 190 189 190 191 193 195 197 199 198 199
203 212 215 204 198 213 219 217 222 178 88 60 40 35 335 316 315 317 313 311 324 332 326 343 360 227 193 157 135 127 122 118 117 115 114 112 109 105 103 101 100 102 104 104 103 101 99 96 97 100 102 106 111 117 124 128 128 127 124 123 127 131 131 133 137 138 139 144 151 159 164 167 173 181 183 188 195 194 190 188 190 191 191 195 201 202
234 311 265 219 196 214 238 212 79 68 76 80 77 61 350 327 317 311 314 330 1 10 26 64 87 125 142 133 126 122 118 115 113 110 107 103 100 97 94 91 89 90 92 93 95 98 101 103 103 102 100 101 106 108 112 119 122 119 118 121 127 129 131 135 136 135 136 141 148 155 159 162 172 183 188 191 195 194 191 189 190 189 187 192 201 200
52 15 284 238 160 137 71 69 78 72 72 79 75 57 20 355 346 339 343 14 59 70 69 75 86 97 111 120 120 116 113 109 106 102 99 97 93 89 86 84 82 82 86 90 94 101 109 112 112 110 107 106 106 105 105 108 112 113 116 122 127 129 132 133 131 130 133 138 143 151 158 162 173 185 192 194 194 194 193 191 190 191 193 195 199 197
53 9 299 191 154 177 144 80 72 59 64 72 67 50 26 6 360 1 13 32 58 74 73 70 75 83 86 89 98 102 102 98 95 93 91 89 88 86 83 81 78 76 77 79 83 93 101 105 108 110 109 106 102 99 98 98 102 110 118 125 129 130 130 129 128 128 132 137 143 150 159 166 173 184 192 193 194 195 197 196 194 195 199 201 200 196
360 335 334 46 131 149 91 69 65 58 58 61 60 48 20 3 8 18 32 46 54 63 65 60 57 60 61 59 65 76 82 82 81 83 82 80 80 82 81 80 79 78 76 73 74 80 84 84 87 92 95 96 95 95 96 97 104 115 123 127 129 129 128 127 128 129 132 137 142 150 163 171 174 181 188 190 192 194 194 196 200 202 206 209 204 196
297 295 343 351 162 123 98 102 109 86 63 54 52 34 352 344 9 26 31 41 47 53 60 59 52 45 43 44 46 54 62 66 68 71 71 68 69 74 77 80 79 76 75 72 69 72 77 80 82 84 86 89 91 96 100 103 111 120 124 124 126 128 128 130 132 131 132 137 141 151 167 173 173 181 184 172 166 174 178 183 196 204 207 206 200 195
318 328 356 277 199 140 102 136 138 104 74 61 61 36 336 338 12 31 32 35 37 43 57 64 59 50 45 44 46 52 56 57 59 66 67 63 61 65 71 76 79 77 76 77 76 74 75 77 81 84 87 89 93 99 103 105 111 118 121 123 128 131 130 133 136 133 135 144 151 156 169 176 175 183 182 160 151 162 168 169 185 197 198 194 196 202
348 350 329 296 213 44 38 119 127 77 63 67 71 61 333 348 18 36 41 41 36 34 47 61 63 57 50 46 46 53 59 59 58 62 66 65 61 62 66 70 75 79 80 80 80 79 77 76 78 81 85 88 92 96 100 103 109 114 117 120 126 130 129 133 139 139 145 157 154 150 164 175 169 169 168 153 153 168 168 164 181 198 205 206 207 211
Height
742 754 759 755 750 747 745 743 743 741 740 746 749 754 754 755 755 747 746 745 745 762 765 760 766 766 761 759 759 760 760 764 768 768 769 769 771 773 774 775 775 776 775 775 780 783 786 790 792 795 797 799 801 803 806 808 809 811 813 815 816 818 820 822 823 824 826 827 828 829 830 830 831 832 833 834 835 835 836 837 838 838 839 839 839 840
744 756 754 745 741 738 738 739 739 740 741 746 749 752 753 753 749 741 746 748 744 758 763 755 763 765 759 756 755 758 762 764 765 766 769 768 768 770 771 773 773 773 772 773 777 780 783 787 789 792 794 796 798 800 803 804 807 809 810 812 814 816 818 819 820 822 823 824 825 826 827 828 829 831 832 832 833 834 835 836 836 836 837 837 838 839
756 755 744 735 734 733 735 736 738 742 744 748 749 752 756 750 746 746 749 750 748 758 762 756 763 764 755 752 753 756 759 759 757 759 762 764 766 767 768 770 770 771 772 772 774 776 779 782 785 789 791 793 795 797 800 802 804 806 808 810 811 813 815 816 818 819 821 822 823 825 825 827 828 829 830 831 831 832 833 834 834 835 835 835 836 837
759 749 735 730 731 734 739 738 740 744 745 748 749 754 757 745 749 762 760 753 750 753 757 756 761 762 756 753 751 750 752 752 752 753 754 757 761 763 762 764 766 768 770 771 771 772 774 778 781 784 786 789 791 794 796 799 801 803 805 807 808 810 812 813 815 816 818 820 822 823 824 826 827 828 829 829 830 831 831 832 832 833 833 833 834 835
747 736 726 728 732 737 742 741 742 748 749 747 744 749 752 742 747 756 754 753 753 752 752 757 771 769 758 758 753 746 747 749 749 751 753 753 754 756 757 759 761 762 765 767 768 768 770 773 776 779 782 785 788 790 792 794 797 799 801 803 805 807 809 811 812 814 816 818 820 821 823 825 826 826 827 827 828 829 829 830 830 831 831 832 833 834
738 728 725 733 738 739 743 744 743 746 750 748 742 740 741 739 742 746 747 756 768 770 757 761 789 783 755 754 753 745 747 750 748 749 752 752 751 753 756 756 756 757 759 761 763 764 765 768 771 775 778 781 784 786 789 791 794 796 798 800 803 804 806 808 810 812 814 816 817 819 821 822 823 824 824 825 826 826 827 828 828 829 830 831 832 833
732 726 729 737 740 741 744 744 739 739 749 751 737 730 734 736 742 746 749 760 776 777 755 753 785 787 759 750 746 742 747 749 748 748 748 748 749 750 751 752 752 753 755 756 758 759 761 764 767 771 774 777 780 782 785 788 791 793 795 797 800 801 803 805 807 809 811 813 815 816 818 819 820 821 822 823 824 825 825 826 827 828 829 830 831 832
727 730 736 737 739 743 745 744 735 733 747 746 726 724 734 738 743 746 749 758 760 757 753 752 767 781 771 752 739 739 747 749 748 748 745 743 744 744 744 745 746 748 750 752 755 755 757 759 762 766 770 773 775 779 782 785 788 790 792 794 796 798 800 802 804 806 808 810 812 814 815 816 818 818 820 821 822 823 824 825 826 827 828 829 829 831
724 733 737 737 741 743 739 736 728 729 742 735 717 721 731 735 740 741 745 753 747 751 768 763 760 779 778 752 739 741 748 752 748 744 741 739 737 738 738 738 739 742 743 746 749 751 752 755 759 762 766 769 772 776 779 781 784 787 789 791 793 795 797 799 801 803 805 807 809 811 813 814 815 817 818 819 820 821 822 823 824 825 826 827 828 829
722 724 724 730 739 737 731 727 722 729 736 725 717 724 729 731 736 739 745 750 748 759 775 763 756 779 779 751 743 749 751 750 742 735 733 731 731 731 732 732 733 736 739 741 743 745 747 750 755 759 762 766 769 772 776 778 781 784 786 788 790 792 794 796 798 800 802 804 806 808 810 811 813 815 816 817 818 819 820 821 823 824 825 826 827 828
716 714 715 722 728 726 724 722 718 724 726 721 726 734 735 736 737 741 743 746 759 771 771 756 748 769 779 753 738 744 744 737 731 729 726 724 725 725 725 727 728 730 733 736 738 740 743 746 750 755 758 761 765 768 772 775 777 780 782 784 787 789 791 793 795 797 799 801 803 804 806 808 810 812 814 814 815 816 818 820 821 823 824 825 826 828
717 721 721 716 715 716 722 724 721 721 721 725 734 739 746 752 751 755 755 758 777 782 766 749 740 759 778 756 729 725 724 720 722 724 720 719 719 719 720 722 722 725 728 731 735 737 739 743 746 750 753 757 761 764 767 770 773 776 778 780 783 785 788 790 792 794 796 798 799 801 803 805 807 809 810 811 812 814 816 818 820 821 822 823 825 827
721 722 718 714 713 713 724 732 730 727 725 731 737 742 757 770 773 780 777 774 783 775 754 740 739 755 763 743 723 718 714 713 714 712 710 710 711 713 716 717 718 720 723 726 731 733 736 739 741 744 748 752 755 759 762 765 768 771 774 776 779 781 784 786 788 791 792 794 796 798 800 802 804 806 807 808 810 812 814 816 818 819 821 822 824 825
729 723 715 718 717 710 719 731 736 735 732 735 738 743 758 769 783 794 784 777 779 765 744 735 742 756 753 732 718 715 711 706 703 701 701 702 705 708 709 711 713 715 718 721 724 728 731 733 736 739 743 746 750 753 757 760 764 767 769 772 775 777 780 782 785 787 789 790 792 794 797 799 801 802 804 806 808 811 812 814 815 817 819 821 822 824
736 735 718 716 716 710 714 718 720 724 729 732 725 730 744 750 764 779 775 774 774 760 745 741 751 760 752 729 710 705 703 698 697 695 694 698 701 702 704 706 709 711 713 716 718 721 723 726 731 734 738 742 745 748 752 756 759 762 764 767 770 773 776 778 781 783 784 786 789 791 793 795 797 799 802 804 806 808 810 812 814 816 817 819 821 822
729 728 704 700 703 704 712 710 703 714 728 726 716 725 736 730 736 750 752 749 751 755 749 744 749 742 727 714 702 701 702 697 697 695 694 699 698 700 704 704 705 706 708 710 713 715 717 720 725 729 733 737 740 744 747 750 754 756 759 762 765 769 772 774 777 778 780 783 786 788 789 792 794 797 799 801 804 805 807 810 812 814 816 817 819 821
726 720 696 696 700 696 704 704 700 711 722 720 721 728 721 709 718 738 746 737 740 758 749 736 744 734 720 717 705 701 705 700 698 697 694 696 696 700 703 701 701 702 703 705 707 709 711 714 718 722 727 731 735 739 742 745 748 751 755 758 762 766 768 771 772 774 777 780 782 784 786 789 791 794 796 798 801 803 805 808 810 812 814 815 817 818
715 718 698 698 708 697 692 698 698 698 703 714 724 718 707 709 715 725 743 748 753 765 747 729 739 739 736 733 710 701 708 704 699 696 691 691 694 699 699 696 698 697 698 701 701 704 707 708 712 716 720 725 728 733 736 740 743 747 751 754 758 761 764 766 768 770 773 776 778 781 783 786 788 791 793 795 798 800 802 805 807 809 811 812 815 817
705 719 704 694 705 698 688 700 708 699 693 701 706 699 706 731 736 730 742 752 757 765 752 734 731 731 733 727 710 707 709 702 697 693 689 689 692 695 694 692 694 694 695 698 698 701 703 704 707 710 715 719 723 728 731 736 740 744 747 750 753 756 758 762 765 767 770 772 775 777 780 783 786 788 790 793 795 797 799 802 804 806 809 811 813 815
697 719 713 692 693 696 695 705 713 709 699 697 699 698 702 717 726 728 732 737 746 755 753 744 735 726 718 708 703 705 701 697 697 693 689 688 686 688 688 688 690 692 693 693 694 697 697 699 701 704 709 714 718 723 727 732 736 739 743 746 749 752 755 758 761 763 766 768 771 774 777 780 782 784 787 789 792 794 796 799 801 804 806 808 810 812
694 713 717 698 689 697 704 703 702 704 702 705 712 715 710 707 711 718 718 719 730 744 747 747 741 722 701 691 693 696 693 693 693 691 689 685 680 680 680 682 685 687 688 689 689 691 692 694 697 700 706 709 714 719 723 727 731 734 739 742 745 748 751 753 756 758 761 764 767 770 773 776 778 781 783 786 788 790 793 795 797 800 802 804 806 809
694 706 712 706 700 703 700 688 686 689 690 698 709 712 711 710 715 728 730 718 715 727 732 735 740 719 686 677 683 687 687 686 685 686 685 680 676 675 675 677 679 682 684 685 685 686 688 691 693 697 702 706 710 714 718 723 727 730 734 737 740 744 746 748 751 754 757 760 763 766 769 772 774 777 779 782 784 786 789 792 794 796 799 801 804 806
684 696 707 708 700 697 689 677 678 681 679 684 692 696 700 703 709 726 735 723 713 717 715 718 730 715 678 667 677 681 681 679 677 679 679 676 672 672 674 674 675 678 680 680 681 683 684 687 690 694 699 703 706 710 715 719 722 726 730 733 736 738 740 744 747 750 753 756 759 762 765 768 770 773 775 778 780 782 786 789 791 794 796 799 802 804
682 695 709 710 697 687 681 673 672 675 680 686 686 684 689 695 697 703 710 711 712 715 715 721 731 713 678 666 673 675 675 674 673 674 677 676 672 670 673 673 674 678 678 678 679 679 681 684 687 692 696 700 704 707 712 715 718 722 726 729 732 733 736 740 743 747 749 752 755 758 761 764 766 769 771 773 775 778 781 785 787 790 793 796 798 800
688 698 706 715 716 711 703 694 689 686 686 689 685 680 682 684 688 692 695 701 708 708 709 719 726 708 681 671 674 675 674 673 671 670 671 674 672 670 671 672 675 678 679 679 679 679 681 683 686 689 692 696 701 705 708 712 716 719 722 725 727 729 732 736 739 743 745 748 751 754 757 759 761 764 766 768 770 773 777 780 782 785 788 791 794 796
685 694 698 710 722 725 721 710 702 695 690 688 685 681 680 680 685 692 698 706 711 707 703 708 711 698 679 674 677 677 675 675 673 668 667 669 670 669 670 673 675 677 679 680 680 680 682 683 685 688 690 694 698 702 706 709 713 716 718 721 723 725 729 732 736 738 741 744 747 749 752 754 756 759 761 763 766 769 772 776 778 780 783 786 789 791
683 686 688 696 700 699 699 692 684 684 688 692 689 684 681 680 681 686 696 703 704 705 706 701 698 695 685 678 679 677 675 676 673 669 668 668 667 667 668 671 673 675 677 678 679 680 681 683 685 686 688 692 695 699 703 706 709 712 715 717 720 723 726 729 732 735 738 740 743 746 748 750 752 754 757 760 763 766 768 772 775 776 779 783 785 787
688 690 685 689 688 681 678 675 671 675 682 686 685 684 682 680 680 684 692 692 690 702 709 696 690 697 691 677 675 675 674 673 671 668 667 665 663 663 665 669 671 673 674 676 678 679 680 682 683 684 687 689 693 697 700 703 706 709 711 714 717 720 723 726 729 732 735 738 740 743 745 747 750 752 755 759 761 763 766 769 772 776 779 781 781 781
689 693 683 683 685 678 673 671 668 670 675 677 677 679 680 680 682 685 687 684 684 695 701 690 687 694 689 676 671 668 667 668 667 664 661 659 659 660 663 667 670 671 672 674 675 676 678 679 680 682 684 686 690 694 697 700 703 705 709 712 714 718 721 724 727 730 732 735 737 740 742 745 748 751 755 758 759 761 764 767 770 775 778 777 776 777
685 690 681 679 681 676 671 669 666 666 670 672 672 672 673 674 675 679 680 678 679 684 685 682 686 686 678 672 667 660 658 659 659 657 656 657 659 661 663 666 667 667 668 669 670 671 674 676 677 679 682 684 687 690 693 696 699 702 706 709 712 716 719 722 725 727 730 732 735 738 740 743 745 749 752 755 757 759 762 764 767 770 771 770 770 772
682 687 678 676 681 678 669 665 665 665 666 667 668 666 666 668 669 671 673 673 676 680 678 678 685 681 668 662 660 657 655 655 656 657 658 658 658 658 660 662 663 663 663 664 665 666 669 673 675 676 679 681 683 686 689 692 695 699 703 706 710 713 716 719 722 725 727 730 733 736 739 741 743 746 749 752 754 756 758 760 762 764 764 764 765 767
679 684 678 679 688 682 667 665 667 664 664 667 667 665 664 666 667 665 663 664 669 675 678 679 683 678 665 657 656 656 655 655 656 657 658 657 654 654 657 658 658 659 659 659 660 661 665 668 671 672 674 676 679 682 685 689 693 697 700 703 707 710 714 717 719 722 725 727 731 733 736 739 741 743 747 749 751 753 754 756 758 760 760 760 761 763
677 682 680 684 693 685 668 664 663 665 677 679 667 660 660 660 661 660 657 655 655 661 671 674 670 663 656 653 656 656 654 654 654 654 654 653 651 651 652 653 654 654 654 655 655 657 660 662 664 667 669 672 675 679 682 686 690 693 697 700 704 708 711 714 717 720 722 725 728 730 732 736 738 740 744 746 747 749 751 752 754 756 757 758 760 761
676 681 682 683 692 688 671 662 668 681 692 678 651 643 648 651 654 658 656 651 647 648 652 654 651 649 648 649 652 654 650 647 646 646 645 645 647 649 649 648 650 650 650 652 652 653 656 659 661 663 666 670 673 676 681 684 688 692 695 699 703 706 709 712 714 717 720 722 725 727 729 732 735 738 741 743 745 747 748 749 750 752 754 756 759 761
678 681 682 682 689 687 672 674 695 703 684 657 639 635 638 640 643 648 650 645 642 642 643 645 647 645 644 644 643 643 642 639 639 639 638 638 640 643 645 646 647 648 649 650 650 652 654 656 658 661 664 668 672 675 679 683 686 691 694 697 701 704 706 709 712 715 718 720 722 724 727 729 732 736 738 740 743 745 746 747 748 749 752 755 759 761
677 681 681 680 684 686 683 692 703 692 662 645 644 643 641 642 642 647 652 645 638 639 641 643 645 642 640 640 636 635 636 635 637 638 636 636 636 637 640 642 642 643 645 646 648 650 651 653 656 659 662 666 670 674 678 681 685 689 692 695 699 702 705 708 710 713 716 718 720 723 725 727 731 733 736 738 741 742 744 746 746 748 752 755 757 759
671 678 680 683 685 688 697 700 689 675 665 660 658 653 652 653 650 652 657 647 632 630 634 636 639 637 636 635 632 631 634 639 644 642 633 632 633 633 633 634 634 637 639 640 643 646 648 652 655 659 663 665 669 672 676 680 683 687 690 694 697 700 703 706 709 711 714 717 719 721 724 726 729 731 734 736 739 741 743 745 746 748 751 753 754 757
665 672 678 686 686 686 700 708 695 684 682 675 665 658 655 655 651 652 660 653 633 624 626 629 633 634 633 633 632 633 640 649 654 643 628 626 629 629 630 630 629 632 634 636 640 643 646 649 653 658 662 665 668 671 674 678 682 685 689 692 696 699 702 704 707 710 713 716 718 720 723 725 727 730 732 735 737 740 742 743 745 747 749 750 752 755
662 665 671 681 685 683 696 710 703 689 681 672 664 658 655 654 650 653 667 662 636 621 620 621 625 630 629 629 632 637 647 656 653 636 622 621 624 625 629 630 628 630 632 634 638 642 645 647 650 656 661 664 667 670 672 676 680 683 688 691 695 698 700 703 706 709 712 715 717 719 722 724 726 728 731 733 736 738 741 742 744 746 748 749 751 754
665 667 671 679 682 681 688 697 691 678 671 666 661 657 654 651 651 666 681 666 637 626 623 618 619 622 621 624 630 637 644 647 641 628 618 620 623 623 626 629 630 631 631 632 636 641 644 646 649 654 659 663 666 668 671 675 679 683 687 691 694 696 698 701 705 708 711 713 716 718 721 722 725 727 729 732 735 737 740 741 743 746 747 749 751 754
667 668 671 675 676 676 681 687 683 672 667 664 659 654 651 651 660 675 677 658 642 638 632 624 621 618 615 620 627 632 633 632 629 625 621 621 625 626 628 629 631 631 632 633 638 643 645 647 649 653 658 661 664 667 670 674 678 683 687 690 692 694 696 700 703 706 709 712 715 718 719 721 724 726 728 731 733 736 738 741 743 745 747 748 751 753
669 670 671 671 670 669 672 677 680 674 666 660 655 650 651 661 671 670 659 648 644 640 633 631 629 621 618 621 623 625 626 624 624 626 625 626 628 630 630 632 633 634 635 637 642 646 646 648 652 655 659 661 664 668 671 674 678 683 687 689 691 693 696 699 702 704 707 711 714 716 718 720 722 724 727 730 732 734 737 739 741 744 745 747 748 750
661 667 672 668 664 666 672 678 683 678 664 655 654 655 660 668 668 660 652 646 641 636 633 633 630 625 624 624 622 622 624 624 625 627 628 630 631 632 633 635 635 636 637 639 644 647 648 651 654 657 660 663 667 670 673 676 680 683 686 689 691 694 697 699 701 703 706 710 713 715 717 719 722 724 726 728 731 733 736 738 740 742 743 745 746 748
654 659 662 657 654 663 672 672 670 665 654 649 654 662 666 665 659 654 652 647 640 637 635 632 630 627 625 625 626 626 626 627 629 630 630 632 633 634 636 637 637 638 639 641 645 648 651 654 658 661 664 667 670 673 676 679 681 684 686 689 692 695 697 699 701 703 706 709 712 715 717 719 721 724 726 728 731 733 734 736 738 740 742 744 745 746
657 655 655 652 649 654 659 658 655 653 649 647 651 658 661 659 655 652 650 646 643 639 634 632 632 629 625 626 628 628 628 629 630 630 632 634 635 637 638 639 640 641 643 645 649 652 654 657 661 664 668 671 673 675 678 681 683 685 687 690 693 695 698 700 702 703 706 709 712 714 716 719 721 724 726 728 731 732 733 735 737 739 741 742 743 744
653 651 651 651 652 654 656 656 656 657 654 648 648 653 656 657 656 653 650 648 645 640 635 633 633 631 629 630 630 629 629 629 629 631 634 635 638 640 641 642 644 646 648 651 654 656 658 659 662 665 669 673 675 677 679 682 684 685 687 690 693 696 698 700 702 703 706 709 711 714 716 718 721 724 727 729 730 731 732 734 736 737 739 740 741 742
652 650 649 651 655 659 663 662 660 661 659 652 649 653 658 660 658 655 653 651 646 640 636 634 633 634 636 637 635 632 629 629 632 636 637 638 641 643 644 646 649 650 653 656 658 660 660 661 663 665 668 672 675 677 680 682 684 686 688 691 694 696 698 699 701 703 706 708 711 714 716 719 722 725 727 729 730 731 732 733 735 736 737 738 738 739
659 654 654 656 657 661 667 668 664 664 662 654 652 660 665 665 661 656 653 651 647 641 636 634 636 638 640 641 639 634 632 634 637 640 641 643 645 646 648 650 652 654 657 659 661 662 663 664 666 668 670 672 675 678 681 683 685 688 690 692 694 695 697 699 701 703 706 708 711 714 716 719 722 724 726 728 730 731 732 733 734 735 736 737 737 738
659 657 661 662 660 662 667 669 666 666 666 661 660 669 674 671 665 661 657 652 649 645 639 638 643 646 646 646 643 639 640 642 642 643 646 649 650 650 651 652 654 657 659 661 664 665 666 668 670 671 673 675 677 680 683 684 687 689 690 692 694 695 697 699 701 703 705 708 711 714 717 719 721 723 725 727 729 730 731 732 734 735 736 736 737 738
662 665 664 661 663 666 668 668 667 670 675 673 672 678 681 675 669 666 662 658 656 653 648 648 652 655 655 653 650 648 650 651 650 650 652 655 656 656 655 655 657 660 662 664 667 669 670 672 673 675 677 679 680 682 684 686 687 689 691 693 694 696 697 699 700 702 705 708 711 714 716 718 720 722 724 726 728 729 731 732 734 735 736 736 737 738
671 673 668 663 667 670 668 666 667 671 678 680 680 684 684 678 672 670 668 666 666 663 659 657 660 663 664 662 658 657 657 658 657 657 657 660 662 660 659 660 661 662 664 667 668 670 672 674 676 678 680 682 683 684 685 686 688 690 692 693 695 696 698 699 701 702 704 706 708 711 715 716 718 721 723 725 727 729 731 732 734 734 735 736 737 738